Weather History for Hart Island, NS

Change the Weather History Date:

Saturday, October 15, 2011

  Actual Average Record
Temperature  
Mean Temperature 60 °F -  
Max Temperature 64 °F - - ()
Min Temperature 55 °F - - ()
Degree Days  
Heating Degree Days 5    
Growing Degree Days 10 (Base 50)    
Moisture  
Dew Point 57 °F    
Average Humidity 88    
Maximum Humidity 100    
Minimum Humidity 65    
Precipitation  
Precipitation 0.00 in - - ()
Sea Level Pressure  
Sea Level Pressure 29.74 in    
Wind  
Wind Speed 17 mph ()    
Max Wind Speed 26 mph    
Max Gust Speed 34 mph    
T = Trace of Precipitation, MM = Missing Value Source: Averaged Metar Reports

Daily Weather History Graph

Daily Weather History Graph

Search for Another Location

Airport:

Trip Planner

Search our weather history database for the weather conditions in past years. The results will help you decide how hot, cold, wet, or windy it might be!

Date:

Astronomy

Oct. 15, 2011 Rise Set
Actual Time 7:19 AM ADT 6:19 PM ADT
Civil Twilight 6:49 AM ADT 6:48 PM ADT
Nautical Twilight 6:15 AM ADT 7:23 PM ADT
Astronomical Twilight 5:41 AM ADT 7:57 PM ADT
Moon 8:00 PM ADT (10/15) 10:51 AM ADT (10/15)
Length of Visible Light 11h 59m
Length of Day
10h 59m
Waning Gibbous, 89% of the Moon is Illuminated
Oct 15
Waning Gibbous
Oct 20
Last Quarter
Oct 26
New
Nov 2
First Quarter
Nov 10
Full

Hourly Weather History & Observations

Time (ADT) Temp. Dew Point Humidity Pressure Visibility Wind Dir Wind Speed Gust Speed Precip Events Conditions
12:00 AM 60.3 °F 60.1 °F 99% 29.81 in - South 17.3 mph - N/A   Unknown
1:00 AM 59.0 °F 58.8 °F 99% 29.79 in - SSE 18.4 mph - N/A   Unknown
2:00 AM 60.4 °F 60.3 °F 99% 29.77 in - South 19.6 mph 26.5 mph N/A   Unknown
3:00 AM 60 °F 60 °F 100% 29.76 in - South 21.9 mph - -  
3:00 AM 60.1 °F 59.9 °F 99% 29.76 in - South 21.9 mph 31.1 mph N/A   Unknown
5:00 AM 60.6 °F 60.3 °F 99% 29.66 in - South 17.3 mph 23.0 mph N/A   Unknown
6:00 AM 60.8 °F 59.7 °F 96% 29.68 in - South 19.6 mph 27.6 mph N/A   Unknown
7:00 AM 62.4 °F 60.6 °F 94% 29.67 in - South 25.3 mph 34.5 mph N/A   Unknown
8:00 AM 62.2 °F 61.3 °F 97% 29.67 in - South 26.5 mph 34.5 mph N/A   Unknown
9:00 AM 61 °F 60 °F 96% 29.69 in - South 21.9 mph - -  
10:00 AM 59.9 °F 59.4 °F 98% 29.70 in - South 20.7 mph 31.1 mph N/A   Unknown
11:00 AM 62.6 °F 60.4 °F 93% 29.72 in - South 15.0 mph 26.5 mph N/A   Unknown
12:00 PM 64.2 °F 59.5 °F 85% 29.73 in - SSW 21.9 mph 29.9 mph N/A   Unknown
1:00 PM 64.9 °F 56.8 °F 75% 29.72 in - SW 19.6 mph 29.9 mph N/A   Unknown
2:00 PM 64.2 °F 56.5 °F 76% 29.71 in - SSW 19.6 mph 27.6 mph N/A   Unknown
3:00 PM 64 °F 55 °F 65% 29.71 in - SSW 23.0 mph - -  
3:00 PM 64.4 °F 55.2 °F 72% 29.71 in - SSW 23.0 mph 31.1 mph N/A   Unknown
4:00 PM 61.7 °F 55.4 °F 80% 29.73 in - SSW 19.6 mph 26.5 mph N/A   Unknown
5:00 PM 60.6 °F 53.8 °F 78% 29.74 in - SSW 20.7 mph 27.6 mph N/A   Unknown
6:00 PM 59.2 °F 53.1 °F 80% 29.76 in - SSW 16.1 mph 23.0 mph N/A   Unknown
7:00 PM 58.6 °F 51.6 °F 77% 29.78 in - SSW 16.1 mph 21.9 mph N/A   Unknown
8:00 PM 56.8 °F 53.1 °F 87% 29.79 in - South 11.5 mph - N/A   Unknown
9:00 PM 57 °F 54 °F 85% 29.81 in - South 11.5 mph - -  
9:00 PM 57.2 °F 53.8 °F 88% 29.81 in - South 11.5 mph - N/A   Unknown
10:00 PM 56.7 °F 53.6 °F 89% 29.82 in - South 11.5 mph - N/A   Unknown
11:00 PM 55.9 °F 53.2 °F 91% 29.82 in - South 9.2 mph - N/A   Unknown